Meridian NAS, MS

3:24 PM CDT on May 28, 2017 (GMT -0500)
Meridian Naval Air Station

Weather History for KNMM - February, 2013

Change the Weather History Date:

Wednesday, February 13, 2013

  Actual Average Record
Temperature  
Mean Temperature 44 °F -  
Max Temperature 51 °F 59 °F 73 °F (2000)
Min Temperature 35 °F 40 °F 21 °F (2006)
Degree Days  
Heating Degree Days 22    
Moisture  
Dew Point 41 °F    
Average Humidity 80    
Maximum Humidity 97    
Minimum Humidity 62    
Precipitation  
Precipitation 0.01 in - - ()
Sea Level Pressure  
Sea Level Pressure 29.94 in    
Wind  
Wind Speed 8 mph (WNW)    
Max Wind Speed 20 mph    
Max Gust Speed 29 mph    
Visibility 9 miles    
Events      
Averages and records for this station are not official NWS values.
T = Trace of Precipitation, MM = Missing Value Source: NWS Daily Summary

Daily Weather History Graph

Daily Weather History Graph

Search for Another Location

Airport or City:

Trip Planner

Search our weather history database for the weather conditions in past years. The results will help you decide how hot, cold, wet, or windy it might be!

Date:

Astronomy

Feb. 13, 2013 Rise Set
Actual Time 6:38 AM CST 5:38 PM CST
Civil Twilight 6:13 AM CST 6:03 PM CST
Nautical Twilight 5:44 AM CST 6:32 PM CST
Astronomical Twilight 5:16 AM CST 7:01 PM CST
Moon 8:23 AM CST (2/13) 9:23 PM CST (2/13)
Length of Visible Light 11h 50m
Length of Day
10h 59m
Waxing Crescent, 14% of the Moon is Illuminated
Feb 13
Waxing Crescent
Feb 17
First Quarter
Feb 25
Full
Mar 4
Last Quarter
Mar 11
New

Hourly Weather History & Observations

Time (CST) Temp. Windchill Dew Point Humidity Pressure Visibility Wind Dir Wind Speed Gust Speed Precip Events Conditions
12:44 AM 48.2 °F - 46.4 °F 93% 29.79 in 7.0 mi Calm Calm - N/A   Overcast
12:56 AM 48.0 °F - 46.9 °F 96% 29.83 in 4.0 mi WSW 3.5 mph - N/A   Overcast
1:12 AM 48.2 °F - 46.4 °F 93% 29.80 in 7.0 mi West 4.6 mph - N/A   Overcast
1:54 AM 48.2 °F - 46.4 °F 93% 29.81 in 7.0 mi WSW 5.8 mph - N/A   Overcast
1:56 AM 48.9 °F - 46.9 °F 93% 29.83 in 8.0 mi WSW 4.6 mph - N/A   Overcast
2:56 AM 51.1 °F - 48.0 °F 89% 29.83 in 10.0 mi West 8.1 mph 18.4 mph N/A   Overcast
3:30 AM 51.8 °F - 46.4 °F 82% 29.82 in 10.0 mi West 10.4 mph - N/A   Mostly Cloudy
3:43 AM 50.0 °F - 46.4 °F 87% 29.81 in 10.0 mi West 12.7 mph 20.7 mph N/A   Scattered Clouds
3:56 AM 50.0 °F - 46.0 °F 86% 29.84 in 10.0 mi West 16.1 mph - N/A   Scattered Clouds
4:30 AM 50.0 °F - 46.4 °F 87% 29.83 in 10.0 mi West 12.7 mph 20.7 mph N/A   Mostly Cloudy
4:56 AM 50.0 °F - 46.0 °F 86% 29.88 in 10.0 mi West 8.1 mph 19.6 mph N/A   Overcast
5:45 AM 48.2 °F - 44.6 °F 87% 29.85 in 10.0 mi West 19.6 mph 25.3 mph N/A   Overcast
5:56 AM 48.9 °F - 44.1 °F 83% 29.92 in 10.0 mi West 17.3 mph 26.5 mph N/A   Overcast
6:02 AM 48.2 °F - 44.6 °F 87% 29.87 in 10.0 mi West 10.4 mph 23.0 mph N/A   Overcast
6:21 AM 48.2 °F - 44.6 °F 87% 29.85 in 10.0 mi WNW 13.8 mph - N/A   Overcast
6:47 AM 48.2 °F - 42.8 °F 82% 29.86 in 10.0 mi WNW 16.1 mph 28.8 mph N/A   Overcast
6:56 AM 48.0 °F - 43.0 °F 83% 29.92 in 10.0 mi West 15.0 mph - N/A   Overcast
7:47 AM 46.4 °F 41.5 °F 41.0 °F 81% 29.92 in 10.0 mi West 10.4 mph 19.6 mph N/A   Mostly Cloudy
7:56 AM 46.9 °F - 41.0 °F 80% 29.95 in 10.0 mi West 11.5 mph 19.6 mph N/A   Mostly Cloudy
8:10 AM 46.4 °F 41.5 °F 41.0 °F 81% 29.93 in 10.0 mi West 10.4 mph - N/A   Mostly Cloudy
8:56 AM 46.9 °F - 41.0 °F 80% 29.97 in 10.0 mi West 9.2 mph - N/A   Overcast
9:56 AM 46.9 °F - 39.9 °F 77% 30.01 in 10.0 mi West 17.3 mph - N/A   Overcast
10:25 AM 48.2 °F - 39.2 °F 71% 29.98 in 10.0 mi WNW 12.7 mph - N/A   Overcast
10:56 AM 48.0 °F - 39.9 °F 74% 30.01 in 10.0 mi WNW 9.2 mph - N/A   Overcast
11:03 AM 48.2 °F - 39.2 °F 71% 29.97 in 10.0 mi WNW 11.5 mph - N/A   Overcast
11:36 AM 50.0 °F - 39.2 °F 66% 29.96 in 10.0 mi WNW 13.8 mph - N/A   Mostly Cloudy
11:56 AM 48.9 °F - 39.0 °F 69% 29.99 in 10.0 mi West 11.5 mph - N/A   Overcast
12:29 PM 50.0 °F - 39.2 °F 66% 29.95 in 10.0 mi West 13.8 mph - 0.01 in   Overcast
12:56 PM 50.0 °F - 37.9 °F 63% 29.99 in 10.0 mi NW 16.1 mph - 0.01 in   Overcast
1:12 PM 50.0 °F - 37.4 °F 62% 29.95 in 10.0 mi NW 16.1 mph - N/A   Overcast
1:56 PM 48.9 °F - 37.9 °F 66% 30.00 in 10.0 mi NW 15.0 mph - N/A   Overcast
2:56 PM 48.9 °F - 37.0 °F 64% 30.00 in 10.0 mi NW 10.4 mph - N/A   Overcast
3:56 PM 48.0 °F - 36.0 °F 63% 30.04 in 10.0 mi NW 13.8 mph - N/A   Overcast
4:56 PM 46.9 °F - 37.0 °F 68% 30.05 in 10.0 mi NW 5.8 mph - N/A   Overcast
5:56 PM 46.9 °F - 37.9 °F 71% 30.06 in 10.0 mi NNW 5.8 mph - N/A   Overcast
6:56 PM 46.0 °F 44.8 °F 37.9 °F 73% 30.07 in 10.0 mi North 3.5 mph - N/A   Overcast
7:56 PM 43.0 °F 41.3 °F 37.0 °F 80% 30.09 in 10.0 mi NW 3.5 mph - N/A   Mostly Cloudy
8:56 PM 39.9 °F - 37.0 °F 89% 30.10 in 9.0 mi Calm Calm - N/A   Clear
9:56 PM 39.0 °F - 37.0 °F 93% 30.11 in 8.0 mi Calm Calm - N/A   Clear
10:56 PM 36.0 °F - 35.1 °F 97% 30.12 in 2.5 mi Calm Calm - N/A   Clear
11:56 PM 35.1 °F 32.2 °F 33.1 °F 92% 30.12 in 2.5 mi NW 3.5 mph - N/A   Clear